GSLV R/B

Last updated on Wed Nov 05 2025 00:02:15 GMT+0000 (Coordinated Universal Time)

1 54149U 22138AN 25308.66101726 .00003666 00000+0 32502-3 0 9991 2 54149 87.3860 208.2159 0019146 243.5654 116.3613 14.95809651165230
UTC large
Height (km)
Speed (km/s)
/
Latitude / Longitude
Inclination (degrees)
Orbital Period (minutes)
Azimuth
Elevation
Range (km)
Doppler Factor

Next 0 passes for location: London (51.5072 / 0.1276)

Sorry there are no passes over London.